Vertical_Velocity
2 1 1 1 -4 -5 -1 0 -5 -4 -3 -1 -3 -5 -3 0 -3 -3 1 1 -1 -7 2 1 0 2 0 -1 3 5 1 -3 -9 3 -11 2 10 3 10 -1 14 9 -7 12 0
1 2 3 1 3 1 1 0 -8 -4 -2 -3 -5 0 -5 -1 -6 -4 -0 -1 0 -3 2 -1 2 3 3 3 -2 -3 3 -4 -0 4 3 -1 5 5 6 -7 -2 4 1 -0 -3
-2 -2 -5 -4 3 9 -1 6 4 -2 -3 -4 -2 0 1 -1 -4 -5 0 1 3 1 -1 -1 -2 3 4 4 1 -5 -6 -1 5 1 1 -1 -0 2 4 -3 -6 -11 -4 2 1
1 8 -1 4 -2 1 6 2 2 -6 -5 -5 -1 2 -4 -4 -7 -7 3 -0 3 0 0 -3 -5 2 2 3 1 -7 4 -4 4 5 1 0 7 -11 -4 -9 27 -1 19 7 5
-1 -3 3 5 5 0 4 2 -0 0 -3 -4 -3 -2 -2 -3 2 -7 -3 1 2 0 1 -3 -3 1 3 -3 2 -6 8 4 4 -3 -6 7 -7 -4 -10 -1 5 -0 -24 -8 -8
-3 -2 -3 5 4 -2 2 2 2 10 0 -3 -4 -4 1 -1 5 -3 -5 3 1 2 1 -3 -3 -1 1 1 -1 1 3 1 4 -2 -3 -6 0 2 -0 8 -5 -8 -6 1 4
-1 -1 -2 -0 3 5 -1 5 -3 -2 0 -3 2 -2 -1 -2 5 -5 0 -4 2 5 -3 -5 -0 2 -1 1 -1 -1 -12 9 -8 3 -9 0 -7 -61 21 2 -2 1 -0 -4 -4
0 -0 -2 -4 -1 -4 3 5 7 -1 -1 -5 -1 0 -0 -3 5 -4 0 -4 3 -3 -5 -2 -4 -3 -0 -1 -1 -4 -5 -2 -6 10 -19 11 -35 10 -1 1 -11 -1 6 7 -26
-3 1 2 -1 -3 2 21 -9 -1 15 -5 2 -4 1 0 -0 -2 -6 -1 1 -0 -1 -6 -2 -3 1 3 2 3 -1 -5 -3 4 -2 3 4 -22 9 3 4 -3 -8 4 -4 3
2 0 1 1 -1 5 1 1 7 2 6 -3 0 -5 -4 2 -4 -5 -1 1 1 -1 -5 -2 -2 -2 -1 5 -10 5 0 -4 -7 6 4 5 -17 1 4 3 1 -3 -3 -5 2
-2 -0 1 1 2 5 4 2 15 -4 -9 6 4 -1 -0 -2 -3 1 1 -1 2 -0 -1 3 -1 -9 -0 -3 -1 -3 -3 -4 -2 1 9 -5 0 -1 1 6 5 1 -3 0 13
-3 -3 -1 0 26 12 -10 -5 -6 -7 3 -5 6 -3 1 -13 2 3 -1 -1 0 -2 4 2 -12 2 -1 -2 -1 6 5 -11 -8 13 10 4 -5 6 6 4 0 -5 -1 0 4
-4 -7 1 -3 1 17 -1 10 8 -1 -2 -1 -0 -1 1 -7 3 -3 -0 -1 2 -3 3 0 0 0 4 -0 8 4 3 -6 -4 21 3 10 7 -2 -4 -8 -4 -6 -7 12 -5
-2 -1 -3 -1 13 4 8 4 5 2 1 -1 0 2 -8 -1 -3 0 -2 -1 -0 3 1 -4 -3 1 7 -6 12 6 -1 5 -7 14 -0 6 1 -6 1 -1 -5 3 -19 9 6
6 2 -1 -0 10 -14 3 2 9 5 4 2 1 4 -5 -3 -1 2 -0 -2 3 4 -4 -1 -1 -2 2 11 5 4 -0 -10 -6 7 -3 3 -1 9 2 3 3 5 2 -11 2
0 5 3 1 -3 0 10 1 3 -1 3 0 3 -3 -2 -2 2 -1 1 2 6 3 -4 -3 -1 -0 4 1 1 4 11 7 25 1 -3 -6 3 6 2 4 -1 -21 -8 7 38
13 7 -3 3 -5 0 -3 8 -3 3 2 -1 -2 -3 -4 3 1 1 9 3 2 -0 -2 -5 -3 -1 0 14 -2 -3 8 1 2 1 3 -0 7 5 8 -11 -6 0 2 7 8
3 -8 -6 -7 4 6 0 10 3 5 3 3 -2 -1 -0 3 -0 4 5 2 -0 -3 -1 3 -2 -1 -6 -2 1 -1 1 4 0 1 2 -2 3 2 -2 2 3 6 9 2 -2
12 2 -14 -4 6 0 15 1 -1 3 6 -6 3 -1 2 0 3 -0 0 -3 2 3 5 1 -2 -3 1 -2 -1 -2 2 5 -3 -1 -3 0 -8 0 12 -1 1 8 -1 8 8
1 5 -3 1 2 9 10 2 0 6 0 1 -1 2 -2 2 2 1 -4 3 5 -1 3 -0 1 -1 4 -3 2 -7 -7 -1 1 1 0 2 1 7 5 -0 -4 -1 -0 1 9
4 -7 8 5 5 13 3 2 6 2 -1 -3 1 0 -0 -1 1 -1 -0 3 2 4 2 3 4 -1 2 3 -0 2 7 3 -1 -2 1 -1 5 1 8 5 6 6 5 7 3
-3 -13 15 4 3 4 -2 -1 -2 -2 0 2 3 2 1 1 -0 -1 -2 -2 -1 -1 2 1 2 -1 -2 -0 -1 2 4 2 5 3 -2 -1 6 -0 -5 8 13 6 0 10 7
-14 -11 13 3 -6 6 -2 0 2 8 -1 -0 2 1 0 2 -0 -3 1 4 0 -0 -3 1 -1 -0 1 -6 1 -3 -1 5 4 2 0 1 5 -3 1 -1 -5 0 2 2 1
-17 -12 -1 -4 -5 -2 -10 14 -4 3 1 1 -0 3 3 -1 -2 -2 -2 -1 -2 -3 -3 -2 -2 -1 2 -3 -3 1 5 -1 -7 -4 4 3 -6 2 -3 6 -0 2 0 4 2
-5 -6 -8 -3 2 -5 1 4 -0 -2 -1 2 2 -0 2 -2 -2 -1 1 -2 -3 -0 -1 -2 -3 -2 -6 -1 -2 -0 -1 -3 0 -0 -0 2 3 1 -0 -4 -5 -1 -1 -0 1
-10 -8 -3 -5 -2 -3 -0 0 -2 -2 -3 1 -0 1 -1 -4 -3 -1 -1 -1 -0 -1 1 0 -2 -2 -3 -0 5 3 -1 0 2 1 0 2 -0 2 -1 -3 0 -4 -8 -9 -8
-4 -3 -2 -3 -2 -3 -4 -3 1 1 1 1 2 3 0 -1 -2 -0 0 0 -2 -1 -1 -2 -1 0 1 -4 -2 -2 -3 -2 -0 -2 -4 -0 -3 -2 -0 1 -1 -0 -1 -2 -0
Height
3103 3103 3102 3100 3099 3097 3096 3094 3092 3089 3088 3086 3082 3079 3077 3076 3072 3068 3068 3069 3068 3068 3070 3071 3072 3073 3073 3075 3077 3078 3077 3075 3079 3082 3085 3090 3090 3091 3092 3093 3100 3102 3105 3111 3108
3095 3095 3094 3093 3092 3091 3090 3088 3087 3085 3084 3081 3079 3075 3072 3071 3068 3065 3065 3064 3064 3065 3066 3067 3068 3069 3069 3070 3071 3071 3070 3072 3077 3079 3081 3082 3084 3086 3087 3087 3090 3096 3099 3101 3103
3087 3086 3085 3084 3086 3084 3083 3083 3081 3079 3078 3076 3074 3071 3068 3066 3065 3062 3060 3060 3062 3062 3062 3063 3064 3065 3064 3064 3065 3065 3063 3070 3071 3071 3072 3073 3077 3081 3081 3081 3086 3091 3095 3096 3098
3076 3076 3076 3077 3077 3077 3076 3076 3075 3074 3073 3072 3069 3067 3064 3063 3065 3060 3058 3058 3059 3059 3058 3058 3060 3060 3060 3059 3059 3059 3059 3062 3064 3064 3064 3067 3070 3070 3074 3077 3083 3080 3086 3088 3092
3066 3065 3065 3068 3068 3069 3070 3068 3068 3069 3067 3068 3066 3062 3060 3059 3059 3056 3054 3055 3055 3054 3053 3053 3055 3056 3055 3054 3054 3052 3054 3055 3057 3056 3057 3061 3061 3064 3065 3070 3074 3074 3079 3081 3086
3056 3056 3055 3056 3058 3060 3062 3062 3063 3064 3062 3061 3061 3058 3057 3056 3054 3051 3050 3051 3051 3051 3049 3049 3050 3051 3050 3050 3050 3049 3047 3047 3048 3048 3049 3053 3055 3059 3058 3066 3068 3070 3073 3077 3082
3047 3046 3047 3047 3047 3052 3054 3056 3057 3057 3057 3056 3056 3053 3053 3052 3051 3048 3046 3048 3048 3048 3046 3045 3045 3045 3044 3044 3044 3043 3042 3041 3041 3043 3043 3048 3046 3047 3055 3060 3063 3067 3069 3073 3079
3037 3038 3039 3040 3041 3041 3045 3049 3049 3051 3051 3050 3050 3048 3048 3047 3047 3044 3044 3044 3045 3043 3042 3041 3040 3040 3040 3040 3040 3040 3040 3037 3037 3038 3040 3043 3036 3043 3051 3055 3057 3061 3064 3067 3073
3029 3030 3030 3032 3034 3035 3040 3041 3043 3044 3046 3045 3045 3045 3045 3043 3044 3041 3042 3042 3041 3039 3037 3037 3036 3037 3037 3037 3037 3035 3032 3033 3032 3033 3035 3037 3034 3040 3046 3049 3052 3055 3059 3061 3068
3021 3022 3023 3024 3026 3028 3031 3035 3035 3038 3038 3041 3041 3043 3041 3041 3039 3039 3040 3039 3038 3036 3035 3034 3034 3033 3033 3034 3032 3031 3029 3029 3027 3032 3030 3033 3031 3038 3041 3044 3047 3050 3054 3056 3061
3015 3016 3016 3018 3019 3020 3025 3028 3031 3035 3036 3036 3036 3034 3035 3037 3037 3037 3037 3037 3036 3034 3032 3032 3031 3027 3028 3029 3028 3028 3026 3024 3021 3025 3027 3028 3030 3035 3036 3038 3042 3044 3048 3051 3054
3008 3009 3011 3012 3012 3016 3018 3021 3025 3029 3030 3028 3028 3031 3032 3034 3035 3034 3035 3036 3034 3032 3030 3030 3025 3025 3026 3024 3022 3020 3018 3015 3016 3018 3021 3024 3028 3032 3033 3034 3038 3040 3043 3047 3050
3000 3002 3004 3007 3008 3008 3013 3016 3020 3022 3025 3026 3026 3027 3030 3032 3032 3032 3033 3033 3031 3030 3029 3026 3024 3020 3021 3018 3014 3011 3010 3011 3015 3015 3019 3022 3027 3028 3030 3033 3035 3037 3038 3043 3047
2992 2994 2997 3000 3006 3005 3008 3013 3016 3019 3022 3023 3022 3025 3028 3030 3031 3031 3030 3031 3029 3028 3027 3024 3021 3017 3016 3012 3009 3004 3001 3005 3010 3015 3015 3019 3022 3026 3028 3029 3032 3037 3036 3040 3047
2986 2987 2990 2994 2996 3001 3007 3009 3012 3015 3018 3020 3019 3021 3026 3029 3031 3030 3028 3027 3027 3026 3028 3023 3020 3018 3013 3010 3007 3006 3002 3001 3006 3013 3015 3019 3020 3023 3025 3024 3024 3027 3031 3033 3037
2981 2981 2984 2987 2991 2997 3002 3006 3010 3015 3013 3015 3017 3021 3025 3027 3028 3027 3027 3026 3024 3024 3022 3021 3021 3018 3014 3011 3009 3009 3009 3007 3009 3014 3016 3019 3021 3024 3022 3022 3022 3025 3029 3034 3033
2973 2975 2978 2982 2987 2992 2999 3004 3010 3009 3011 3014 3016 3021 3024 3027 3027 3027 3026 3025 3024 3025 3023 3022 3021 3019 3017 3014 3014 3012 3012 3013 3015 3013 3017 3019 3020 3022 3020 3019 3024 3026 3030 3034 3035
2968 2971 2976 2980 2985 2990 2997 3003 3004 3004 3009 3011 3016 3021 3024 3025 3026 3026 3025 3024 3024 3024 3024 3023 3023 3021 3019 3018 3018 3017 3016 3013 3010 3011 3018 3017 3019 3022 3020 3021 3024 3026 3028 3033 3036
2955 2960 2970 2980 2984 2990 2997 3001 3002 3005 3009 3012 3018 3022 3023 3024 3026 3025 3025 3025 3025 3024 3026 3024 3023 3022 3021 3021 3021 3018 3017 3017 3017 3017 3016 3024 3025 3023 3023 3020 3020 3024 3027 3031 3035
2953 2959 2973 2978 2985 2991 2998 2999 3003 3006 3010 3015 3019 3021 3023 3024 3025 3025 3025 3025 3024 3024 3024 3024 3024 3024 3021 3021 3022 3021 3022 3021 3018 3018 3021 3024 3025 3026 3025 3024 3024 3028 3030 3033 3036
2960 2967 2978 2984 2990 2996 3001 3002 3006 3009 3013 3017 3018 3020 3022 3023 3024 3024 3027 3027 3025 3025 3025 3025 3026 3029 3026 3025 3025 3024 3023 3022 3020 3020 3015 3017 3028 3026 3025 3026 3027 3031 3034 3036 3039
2972 2974 2985 2991 2997 3001 3004 3006 3009 3014 3016 3018 3019 3020 3022 3022 3023 3025 3027 3028 3028 3028 3028 3028 3029 3030 3030 3028 3028 3026 3022 3020 3020 3023 3022 3023 3035 3031 3030 3032 3033 3034 3037 3038 3040
2979 2983 2994 2998 3001 3004 3007 3009 3012 3015 3017 3019 3020 3022 3022 3023 3026 3027 3028 3030 3030 3030 3031 3031 3032 3032 3033 3033 3030 3028 3027 3025 3023 3024 3027 3025 3036 3035 3036 3037 3038 3040 3041 3043 3046
2986 2991 2999 3002 3003 3008 3012 3012 3015 3017 3019 3020 3022 3023 3025 3026 3027 3030 3031 3032 3032 3032 3032 3032 3033 3033 3034 3033 3032 3030 3029 3030 3029 3028 3031 3033 3035 3038 3040 3042 3042 3043 3045 3047 3049
2993 2997 3002 3005 3008 3013 3014 3015 3018 3020 3021 3022 3024 3025 3027 3029 3030 3032 3033 3034 3034 3034 3034 3034 3035 3036 3035 3033 3033 3033 3034 3034 3034 3035 3035 3037 3038 3040 3043 3045 3047 3048 3049 3050 3050
3000 3002 3004 3006 3010 3014 3016 3018 3021 3023 3023 3025 3026 3028 3029 3030 3033 3034 3034 3035 3036 3036 3036 3036 3037 3038 3037 3034 3035 3036 3036 3035 3035 3036 3038 3039 3039 3041 3042 3044 3046 3047 3048 3049 3049
3006 3005 3007 3009 3012 3015 3018 3020 3023 3025 3026 3027 3028 3030 3031 3033 3034 3034 3035 3036 3037 3037 3037 3037 3038 3038 3039 3037 3035 3038 3037 3037 3037 3038 3039 3041 3041 3042 3042 3043 3044 3045 3045 3046 3047